Location: Aldenham
(51.6667°N, 0.3500°W)
Time: 05:07:43
(UTC+00:00)

Altair - Pass Details

Date: 24 February 2026
Orbit: 1502 x 1682 km, 47.2° (Epoch: 5 March)

Event Time Altitude Azimuth Distance (km) Brightness Sun altitude
Rises 00:30:17 0° 168° (SSE) 4,627 - -47.7°
Reaches altitude 10° 00:37:05 10° 133° (SE) 3,649 - -47.6°
Maximum altitude 00:38:36 11° 123° (ESE) 3,612 - -47.6°
Drops below altitude 10° 00:40:08 10° 113° (ESE) 3,656 - -47.5°
Exits shadow 00:43:39 - 93° (E) 4,040 9.7 -47.4°
Sets 00:46:56 0° 78° (ENE) 4,668 10.3 -47.3°
